National Weather Service United States Department of Commerce

Latest Hourly Weather Roundup

TOPSWRTT 000
TTAA00 KICT 220512

Wichita AWIPS Roundup
National Weather Service Wichita KS
1100 PM CST TUE NOV 21 2017

....Central Kansas....
  
CITY           SKY/WX    TMP DP  RH WIND       PRES   REMARKS
RUSSELL        CLOUDY    25  12  58 NE5       30.40S WCI  19          
SALINA         CLOUDY    25  13  60 NW5       30.44R WCI  19          
GREAT BEND     CLOUDY    21  12  68 CALM      30.42R                  
ELLSWORTH      CLEAR     19   9  63 N5        30.41F WCI  13          
MCPHERSON      CLEAR     23  12  63 N5        30.43R WCI  17          
HAYS           CLOUDY    23  13  65 W3        30.42R                  

....South Central Kansas....
  
CITY           SKY/WX    TMP DP  RH WIND       PRES   REMARKS
HUTCHINSON     CLOUDY    27  13  55 N7        30.42R WCI  19          
NEWTON         CLOUDY    23  13  65 N9        30.41R WCI  13          
KINGMAN        CLEAR     27  12  54 N5        30.41S WCI  21          
WICHITA (ICT)  CLOUDY    31  15  52 N9        30.40R WCI  23          
JABARA ARPT    CLOUDY    24  15  68 N7        30.39R WCI  16          
BEECH ARPT     FAIR      28  14  54 N9        30.39R WCI  19          
MCCONNELL AFB  CLOUDY    28  13  52 N14       30.39R WCI  17          
BENTON         FAIR      28  13  54 N6        30.40R WCI  21          
EL DORADO      FAIR      32  18  55 N10       30.38R WCI  24          
AUGUSTA        FAIR      28  14  54 N9        30.40R WCI  20          
HARPER           N/A     30   9  40 CALM      30.41S                  
WELLINGTON     CLEAR     30  16  55 NW6       30.40R WCI  24          
WINFIELD       CLOUDY    26  15  63 NW8       30.41R WCI  18          
 
....Southeast Kansas....
  
CITY           SKY/WX    TMP DP  RH WIND       PRES   REMARKS
EUREKA         NOT AVBL                                               
IOLA           FAIR      28  17  61 N10       30.37F WCI  19          
CHANUTE        CLOUDY    30  16  56 N9        30.36F WCI  22          
PARSONS        CLEAR     32  18  56 N8        30.37F WCI  25          
COFFEYVILLE    CLEAR     33  18  53 N10       30.37S WCI  25          
INDEPENDENCE   CLEAR     32  17  55 N15       30.36F WCI  21          
FORT SCOTT     PTCLDY    27  18  69 N6        30.35F WCI  20          
PITTSBURG      CLEAR     33  21  60 N7        30.35F WCI  27          

....Western Kansas....
  
CITY           SKY/WX    TMP DP  RH WIND       PRES   REMARKS
GOODLAND       CLOUDY    31  24  75 S8        30.32F WCI  23          
HILL CITY      CLOUDY    21  13  71 CALM      30.41R                  
LIBERAL        CLOUDY    29  21  72 CALM      30.39S                  
GARDEN CITY    CLEAR     32  19  58 E7        30.38S WCI  26          
DODGE CITY     CLOUDY    27  15  61 N3        30.39F                  
PRATT          CLOUDY    26  11  52 N7        30.41R WCI  18          
MEDICINE LODGE   N/A     29  13  51 N5        30.41R WCI  24          

....Northeast Kansas....
  
CITY           SKY/WX    TMP DP  RH WIND       PRES   REMARKS
CONCORDIA      PTCLDY    23  12  62 NE5       30.42S WCI  17          
TOPEKA         CLOUDY    26  15  63 N6        30.41S WCI  19          
MANHATTAN      CLOUDY    25  13  60 N5        30.44R WCI  19          
LAWRENCE       CLOUDY    24  16  71 NW10      30.42R WCI  14          
OLATHE         CLEAR     28  15  58 N13       30.37S WCI  17          
EMPORIA        CLOUDY    24  13  62 N6        30.39S WCI  17          

....Oklahoma....
  
CITY           SKY/WX    TMP DP  RH WIND       PRES   REMARKS
GAGE           CLOUDY    28  20  71 CALM      30.40S                  
PONCA CITY     CLEAR     29  13  51 N6        30.39S WCI  23          
BARTLESVILLE   FLURRIES  34  16  47 N10       30.39S WCI  26          
TULSA          CLEAR     38  17  42 N12G18    30.37R WCI  30          
OKLAHOMA CITY  CLEAR     40  12  32 N14G22    30.34S WCI  32          

Note: "fair" indicates few or no clouds below 12,000 feet with no
significant weather and/or obstructions to visibility.